owner,sensor,date,latitude,longitude,vertical_datum,sea_water_practical_salinity,qcFlag 
DISL,ioos:station:DISL:KATA:1,2016-02-01T00:00:00Z,30.2583,-88.2131,4.297,21.08,1111122 
DISL,ioos:station:DISL:KATA:1,2016-02-01T00:30:00Z,30.2583,-88.2131,4.284,20.91,1111122 
DISL,ioos:station:DISL:KATA:1,2016-02-01T01:00:00Z,30.2583,-88.2131,4.28,21.39,1111122 
DISL,ioos:station:DISL:KATA:1,2016-02-01T01:30:00Z,30.2583,-88.2131,4.28,21.39,1111122 
DISL,ioos:station:DISL:KATA:1,2016-02-01T02:00:00Z,30.2583,-88.2131,4.245,21.37,1111122 
DISL,ioos:station:DISL:KATA:1,2016-02-01T02:30:00Z,30.2583,-88.2131,4.227,21.33,1111122 
DISL,ioos:station:DISL:KATA:1,2016-02-01T03:00:00Z,30.2583,-88.2131,4.208,21.3,1111122 
DISL,ioos:station:DISL:KATA:1,2016-02-01T03:30:00Z,30.2583,-88.2131,4.208,21.3,1111122 
DISL,ioos:station:DISL:KATA:1,2016-02-01T04:00:00Z,30.2583,-88.2131,4.208,21.3,1111122 
DISL,ioos:station:DISL:KATA:1,2016-02-01T04:30:00Z,30.2583,-88.2131,4.208,21.3,1111122 
DISL,ioos:station:DISL:KATA:1,2016-02-01T05:00:00Z,30.2583,-88.2131,4.208,21.3,1111122 
DISL,ioos:station:DISL:KATA:1,2016-02-01T05:30:00Z,30.2583,-88.2131,4.169,21.27,1111122 
DISL,ioos:station:DISL:KATA:1,2016-02-01T06:00:00Z,30.2583,-88.2131,4.146,21.22,1111122 
DISL,ioos:station:DISL:KATA:1,2016-02-01T06:30:00Z,30.2583,-88.2131,4.119,21.19,1111122 
DISL,ioos:station:DISL:KATA:1,2016-02-01T07:00:00Z,30.2583,-88.2131,4.098,21.22,1111122 
DISL,ioos:station:DISL:KATA:1,2016-02-01T07:30:00Z,30.2583,-88.2131,4.098,21.22,1111122 
DISL,ioos:station:DISL:KATA:1,2016-02-01T08:00:00Z,30.2583,-88.2131,4.055,21.19,1111122 
DISL,ioos:station:DISL:KATA:1,2016-02-01T08:30:00Z,30.2583,-88.2131,4.055,21.19,1111122 
DISL,ioos:station:DISL:KATA:1,2016-02-01T09:00:00Z,30.2583,-88.2131,4.045,21.19,1111122 
DISL,ioos:station:DISL:KATA:1,2016-02-01T09:30:00Z,30.2583,-88.2131,4.045,21.19,1111122 
DISL,ioos:station:DISL:KATA:1,2016-02-01T10:00:00Z,30.2583,-88.2131,4.045,21.19,1111122 
DISL,ioos:station:DISL:KATA:1,2016-02-01T10:30:00Z,30.2583,-88.2131,4.045,21.19,1111122 
DISL,ioos:station:DISL:KATA:1,2016-02-01T11:00:00Z,30.2583,-88.2131,4.039,21.07,1111122 
DISL,ioos:station:DISL:KATA:1,2016-02-01T11:30:00Z,30.2583,-88.2131,4.039,21.08,1111122 
DISL,ioos:station:DISL:KATA:1,2016-02-01T12:00:00Z,30.2583,-88.2131,4.043,21.05,1111122 
DISL,ioos:station:DISL:KATA:1,2016-02-01T12:30:00Z,30.2583,-88.2131,4.048,21.11,1111122 
DISL,ioos:station:DISL:KATA:1,2016-02-01T13:00:00Z,30.2583,-88.2131,4.048,21.11,1111122 
DISL,ioos:station:DISL:KATA:1,2016-02-01T13:30:00Z,30.2583,-88.2131,4.084,21.03,1111122 
DISL,ioos:station:DISL:KATA:1,2016-02-01T14:00:00Z,30.2583,-88.2131,4.093,21.19,1111122 
DISL,ioos:station:DISL:KATA:1,2016-02-01T14:30:00Z,30.2583,-88.2131,4.096,21.32,1111122 
DISL,ioos:station:DISL:KATA:1,2016-02-01T15:00:00Z,30.2583,-88.2131,4.084,21.49,1111122 
DISL,ioos:station:DISL:KATA:1,2016-02-01T15:30:00Z,30.2583,-88.2131,4.091,21.56,1111122 
DISL,ioos:station:DISL:KATA:1,2016-02-01T16:00:00Z,30.2583,-88.2131,4.123,21.67,1111122 
DISL,ioos:station:DISL:KATA:1,2016-02-01T16:30:00Z,30.2583,-88.2131,4.139,21.76,1111122 
DISL,ioos:station:DISL:KATA:1,2016-02-01T17:00:00Z,30.2583,-88.2131,4.162,21.86,1111122 
DISL,ioos:station:DISL:KATA:1,2016-02-01T17:30:00Z,30.2583,-88.2131,4.166,21.95,1111122 
DISL,ioos:station:DISL:KATA:1,2016-02-01T18:00:00Z,30.2583,-88.2131,4.179,22.01,1111122 
DISL,ioos:station:DISL:KATA:1,2016-02-01T18:30:00Z,30.2583,-88.2131,4.201,22.09,1111122 
DISL,ioos:station:DISL:KATA:1,2016-02-01T19:00:00Z,30.2583,-88.2131,4.21,22.1,1111122 
DISL,ioos:station:DISL:KATA:1,2016-02-01T19:30:00Z,30.2583,-88.2131,4.215,22.12,1111122 
DISL,ioos:station:DISL:KATA:1,2016-02-01T20:00:00Z,30.2583,-88.2131,4.224,22.16,1111122 
DISL,ioos:station:DISL:KATA:1,2016-02-01T20:30:00Z,30.2583,-88.2131,4.224,22.16,1111122 
DISL,ioos:station:DISL:KATA:1,2016-02-01T21:00:00Z,30.2583,-88.2131,4.217,22.13,1111122 
DISL,ioos:station:DISL:KATA:1,2016-02-01T21:30:00Z,30.2583,-88.2131,4.222,22.13,1111122 
DISL,ioos:station:DISL:KATA:1,2016-02-01T22:00:00Z,30.2583,-88.2131,4.229,22.14,1111122 
DISL,ioos:station:DISL:KATA:1,2016-02-01T22:30:00Z,30.2583,-88.2131,4.22,22.1,1111122 
DISL,ioos:station:DISL:KATA:1,2016-02-01T23:00:00Z,30.2583,-88.2131,4.22,22.04,1111122 
DISL,ioos:station:DISL:KATA:1,2016-02-01T23:30:00Z,30.2583,-88.2131,4.214,22.12,1111122 
DISL,ioos:station:DISL:KATA:1,2016-02-02T00:00:00Z,30.2583,-88.2131,4.204,22.09,1111122 
DISL,ioos:station:DISL:KATA:1,2016-02-02T00:30:00Z,30.2583,-88.2131,4.198,22.01,1111122 
DISL,ioos:station:DISL:KATA:1,2016-02-02T01:00:00Z,30.2583,-88.2131,4.185,22.07,1111122 
DISL,ioos:station:DISL:KATA:1,2016-02-02T01:30:00Z,30.2583,-88.2131,4.174,21.91,1111122 
DISL,ioos:station:DISL:KATA:1,2016-02-02T02:00:00Z,30.2583,-88.2131,4.168,21.97,1111122 
DISL,ioos:station:DISL:KATA:1,2016-02-02T02:30:00Z,30.2583,-88.2131,4.141,21.98,1111122 
DISL,ioos:station:DISL:KATA:1,2016-02-02T03:00:00Z,30.2583,-88.2131,4.124,21.92,1111122 
DISL,ioos:station:DISL:KATA:1,2016-02-02T03:30:00Z,30.2583,-88.2131,4.106,21.96,1111122 
DISL,ioos:station:DISL:KATA:1,2016-02-02T04:00:00Z,30.2583,-88.2131,4.092,21.86,1111122 
DISL,ioos:station:DISL:KATA:1,2016-02-02T04:30:00Z,30.2583,-88.2131,4.071,21.95,1111122 
DISL,ioos:station:DISL:KATA:1,2016-02-02T05:00:00Z,30.2583,-88.2131,4.068,21.92,1111122 
DISL,ioos:station:DISL:KATA:1,2016-02-02T05:30:00Z,30.2583,-88.2131,4.054,21.97,1111122 
DISL,ioos:station:DISL:KATA:1,2016-02-02T06:00:00Z,30.2583,-88.2131,4.046,21.95,1111122 
DISL,ioos:station:DISL:KATA:1,2016-02-02T06:30:00Z,30.2583,-88.2131,4.037,21.81,1111122 
DISL,ioos:station:DISL:KATA:1,2016-02-02T07:00:00Z,30.2583,-88.2131,4.03,21.96,1111122 
DISL,ioos:station:DISL:KATA:1,2016-02-02T07:30:00Z,30.2583,-88.2131,4.018,21.92,1111122 
DISL,ioos:station:DISL:KATA:1,2016-02-02T08:00:00Z,30.2583,-88.2131,4.009,22.21,1111122 
DISL,ioos:station:DISL:KATA:1,2016-02-02T08:30:00Z,30.2583,-88.2131,3.998,22.31,1111122 
DISL,ioos:station:DISL:KATA:1,2016-02-02T09:00:00Z,30.2583,-88.2131,3.998,22.42,1111122 
DISL,ioos:station:DISL:KATA:1,2016-02-02T09:30:00Z,30.2583,-88.2131,4.004,22.52,1111122 
DISL,ioos:station:DISL:KATA:1,2016-02-02T10:00:00Z,30.2583,-88.2131,4.011,22.58,1111122 
DISL,ioos:station:DISL:KATA:1,2016-02-02T10:30:00Z,30.2583,-88.2131,4.024,22.71,1111122 
DISL,ioos:station:DISL:KATA:1,2016-02-02T11:00:00Z,30.2583,-88.2131,4.025,22.75,1111122 
DISL,ioos:station:DISL:KATA:1,2016-02-02T11:30:00Z,30.2583,-88.2131,4.034,22.88,1111122 
DISL,ioos:station:DISL:KATA:1,2016-02-02T12:00:00Z,30.2583,-88.2131,4.048,22.99,1111122 
DISL,ioos:station:DISL:KATA:1,2016-02-02T12:30:00Z,30.2583,-88.2131,4.076,22.94,1111122 
DISL,ioos:station:DISL:KATA:1,2016-02-02T13:00:00Z,30.2583,-88.2131,4.099,22.91,1111122 
DISL,ioos:station:DISL:KATA:1,2016-02-02T13:30:00Z,30.2583,-88.2131,4.125,22.98,1111122 
DISL,ioos:station:DISL:KATA:1,2016-02-02T14:00:00Z,30.2583,-88.2131,4.144,23.05,1111122 
DISL,ioos:station:DISL:KATA:1,2016-02-02T14:30:00Z,30.2583,-88.2131,4.16,22.98,1111122 
DISL,ioos:station:DISL:KATA:1,2016-02-02T15:00:00Z,30.2583,-88.2131,4.182,22.94,1111122 
DISL,ioos:station:DISL:KATA:1,2016-02-02T15:30:00Z,30.2583,-88.2131,4.194,22.87,1111122 
DISL,ioos:station:DISL:KATA:1,2016-02-02T16:00:00Z,30.2583,-88.2131,4.21,23.09,1111122 
DISL,ioos:station:DISL:KATA:1,2016-02-02T16:30:00Z,30.2583,-88.2131,4.243,23.18,1111122 
DISL,ioos:station:DISL:KATA:1,2016-02-02T17:00:00Z,30.2583,-88.2131,4.271,21.85,1111122 
DISL,ioos:station:DISL:KATA:1,2016-02-02T17:30:00Z,30.2583,-88.2131,4.294,23.29,1111122 
DISL,ioos:station:DISL:KATA:1,2016-02-02T18:00:00Z,30.2583,-88.2131,4.339,22.7,1111122 
DISL,ioos:station:DISL:KATA:1,2016-02-02T18:30:00Z,30.2583,-88.2131,4.348,23.25,1111122 
DISL,ioos:station:DISL:KATA:1,2016-02-02T19:00:00Z,30.2583,-88.2131,4.36,23.03,1111122 
DISL,ioos:station:DISL:KATA:1,2016-02-02T19:30:00Z,30.2583,-88.2131,4.345,23.13,1111122 
DISL,ioos:station:DISL:KATA:1,2016-02-02T20:00:00Z,30.2583,-88.2131,4.36,23.1,1111122 
DISL,ioos:station:DISL:KATA:1,2016-02-02T20:30:00Z,30.2583,-88.2131,4.388,22.81,1111122 
DISL,ioos:station:DISL:KATA:1,2016-02-02T21:00:00Z,30.2583,-88.2131,4.42,23.19,1111122 
DISL,ioos:station:DISL:KATA:1,2016-02-02T21:30:00Z,30.2583,-88.2131,4.463,23.37,1111122 
DISL,ioos:station:DISL:KATA:1,2016-02-02T22:00:00Z,30.2583,-88.2131,4.492,23.54,1111122 
DISL,ioos:station:DISL:KATA:1,2016-02-02T22:30:00Z,30.2583,-88.2131,4.511,23.65,1111122 
DISL,ioos:station:DISL:KATA:1,2016-02-02T23:00:00Z,30.2583,-88.2131,4.493,23.76,1111122 
DISL,ioos:station:DISL:KATA:1,2016-02-02T23:30:00Z,30.2583,-88.2131,4.494,23.7,1111122 
DISL,ioos:station:DISL:KATA:1,2016-02-03T00:00:00Z,30.2583,-88.2131,4.498,23.61,1111122 
DISL,ioos:station:DISL:KATA:1,2016-02-03T00:30:00Z,30.2583,-88.2131,4.504,23.47,1111122 
DISL,ioos:station:DISL:KATA:1,2016-02-03T01:00:00Z,30.2583,-88.2131,4.49,23.25,1111122 
DISL,ioos:station:DISL:KATA:1,2016-02-03T01:30:00Z,30.2583,-88.2131,4.462,23.46,1111122 
DISL,ioos:station:DISL:KATA:1,2016-02-03T02:00:00Z,30.2583,-88.2131,4.435,23.76,1111122 
DISL,ioos:station:DISL:KATA:1,2016-02-03T02:30:00Z,30.2583,-88.2131,4.429,23.94,1111122 
DISL,ioos:station:DISL:KATA:1,2016-02-03T03:00:00Z,30.2583,-88.2131,4.402,23.96,1111122 
DISL,ioos:station:DISL:KATA:1,2016-02-03T03:30:00Z,30.2583,-88.2131,4.377,24.0,1111122 
DISL,ioos:station:DISL:KATA:1,2016-02-03T04:00:00Z,30.2583,-88.2131,4.348,24.06,1111122 
DISL,ioos:station:DISL:KATA:1,2016-02-03T04:30:00Z,30.2583,-88.2131,4.302,24.06,1111122 
DISL,ioos:station:DISL:KATA:1,2016-02-03T05:00:00Z,30.2583,-88.2131,4.264,23.99,1111122 
DISL,ioos:station:DISL:KATA:1,2016-02-03T05:30:00Z,30.2583,-88.2131,4.236,23.91,1111122 
DISL,ioos:station:DISL:KATA:1,2016-02-03T06:00:00Z,30.2583,-88.2131,4.191,23.82,1111122 
DISL,ioos:station:DISL:KATA:1,2016-02-03T06:30:00Z,30.2583,-88.2131,4.159,23.72,1111122 
DISL,ioos:station:DISL:KATA:1,2016-02-03T07:00:00Z,30.2583,-88.2131,4.136,23.61,1111122 
DISL,ioos:station:DISL:KATA:1,2016-02-03T07:30:00Z,30.2583,-88.2131,4.121,23.71,1111122 
DISL,ioos:station:DISL:KATA:1,2016-02-03T08:00:00Z,30.2583,-88.2131,4.093,23.82,1111122 
DISL,ioos:station:DISL:KATA:1,2016-02-03T08:30:00Z,30.2583,-88.2131,4.082,23.83,1111122 
DISL,ioos:station:DISL:KATA:1,2016-02-03T09:00:00Z,30.2583,-88.2131,4.07,23.83,1111122 
DISL,ioos:station:DISL:KATA:1,2016-02-03T09:30:00Z,30.2583,-88.2131,4.05,23.88,1111122 
DISL,ioos:station:DISL:KATA:1,2016-02-03T10:00:00Z,30.2583,-88.2131,4.043,23.07,1111122 
DISL,ioos:station:DISL:KATA:1,2016-02-03T10:30:00Z,30.2583,-88.2131,4.052,23.33,1111122 
DISL,ioos:station:DISL:KATA:1,2016-02-03T11:00:00Z,30.2583,-88.2131,4.096,23.7,1111122 
DISL,ioos:station:DISL:KATA:1,2016-02-03T11:30:00Z,30.2583,-88.2131,4.162,23.85,1111122 
DISL,ioos:station:DISL:KATA:1,2016-02-03T12:00:00Z,30.2583,-88.2131,4.126,23.41,1111122 
DISL,ioos:station:DISL:KATA:1,2016-02-03T12:30:00Z,30.2583,-88.2131,4.018,21.86,1111122 
DISL,ioos:station:DISL:KATA:1,2016-02-03T13:00:00Z,30.2583,-88.2131,3.915,21.74,1111122 
DISL,ioos:station:DISL:KATA:1,2016-02-03T13:30:00Z,30.2583,-88.2131,3.861,21.29,1111122 
DISL,ioos:station:DISL:KATA:1,2016-02-03T14:00:00Z,30.2583,-88.2131,3.862,22.44,1111122 
DISL,ioos:station:DISL:KATA:1,2016-02-03T14:30:00Z,30.2583,-88.2131,3.893,23.18,1111122 
DISL,ioos:station:DISL:KATA:1,2016-02-03T15:00:00Z,30.2583,-88.2131,3.921,22.84,1111122 
DISL,ioos:station:DISL:KATA:1,2016-02-03T15:30:00Z,30.2583,-88.2131,3.973,22.67,1111122 
DISL,ioos:station:DISL:KATA:1,2016-02-03T16:00:00Z,30.2583,-88.2131,4.038,22.59,1111122 
DISL,ioos:station:DISL:KATA:1,2016-02-03T16:30:00Z,30.2583,-88.2131,4.104,23.1,1111122 
DISL,ioos:station:DISL:KATA:1,2016-02-03T17:00:00Z,30.2583,-88.2131,4.162,23.22,1111122 
DISL,ioos:station:DISL:KATA:1,2016-02-03T17:30:00Z,30.2583,-88.2131,4.2,23.31,1111122 
DISL,ioos:station:DISL:KATA:1,2016-02-03T18:00:00Z,30.2583,-88.2131,4.213,23.44,1111122 
DISL,ioos:station:DISL:KATA:1,2016-02-03T18:30:00Z,30.2583,-88.2131,4.21,23.75,1111122 
DISL,ioos:station:DISL:KATA:1,2016-02-03T19:00:00Z,30.2583,-88.2131,4.214,23.85,1111122 
DISL,ioos:station:DISL:KATA:1,2016-02-03T19:30:00Z,30.2583,-88.2131,4.21,23.89,1111122 
DISL,ioos:station:DISL:KATA:1,2016-02-03T20:00:00Z,30.2583,-88.2131,4.242,23.82,1111122 
DISL,ioos:station:DISL:KATA:1,2016-02-03T20:30:00Z,30.2583,-88.2131,4.274,23.82,1111122 
DISL,ioos:station:DISL:KATA:1,2016-02-03T21:00:00Z,30.2583,-88.2131,4.344,23.73,1111122 
DISL,ioos:station:DISL:KATA:1,2016-02-03T21:30:00Z,30.2583,-88.2131,4.371,23.69,1111122 
DISL,ioos:station:DISL:KATA:1,2016-02-03T22:00:00Z,30.2583,-88.2131,4.42,23.58,1111122 
DISL,ioos:station:DISL:KATA:1,2016-02-03T22:30:00Z,30.2583,-88.2131,4.422,23.38,1111122 
DISL,ioos:station:DISL:KATA:1,2016-02-03T23:00:00Z,30.2583,-88.2131,4.424,23.07,1111122 
DISL,ioos:station:DISL:KATA:1,2016-02-03T23:30:00Z,30.2583,-88.2131,4.427,22.8,1111122 
DISL,ioos:station:DISL:KATA:1,2016-02-04T00:00:00Z,30.2583,-88.2131,4.437,22.78,1111122 
DISL,ioos:station:DISL:KATA:1,2016-02-04T00:30:00Z,30.2583,-88.2131,4.438,22.43,1111122 
DISL,ioos:station:DISL:KATA:1,2016-02-04T01:00:00Z,30.2583,-88.2131,4.458,22.87,1111122 
DISL,ioos:station:DISL:KATA:1,2016-02-04T01:30:00Z,30.2583,-88.2131,4.437,22.9,1111122 
DISL,ioos:station:DISL:KATA:1,2016-02-04T02:00:00Z,30.2583,-88.2131,4.405,23.1,1111122 
DISL,ioos:station:DISL:KATA:1,2016-02-04T02:30:00Z,30.2583,-88.2131,4.359,23.07,1111122 
DISL,ioos:station:DISL:KATA:1,2016-02-04T03:00:00Z,30.2583,-88.2131,4.332,22.81,1111122 
DISL,ioos:station:DISL:KATA:1,2016-02-04T03:30:00Z,30.2583,-88.2131,4.28,22.82,1111122 
DISL,ioos:station:DISL:KATA:1,2016-02-04T04:00:00Z,30.2583,-88.2131,4.249,22.69,1111122 
DISL,ioos:station:DISL:KATA:1,2016-02-04T04:30:00Z,30.2583,-88.2131,4.226,22.61,1111122 
DISL,ioos:station:DISL:KATA:1,2016-02-04T05:00:00Z,30.2583,-88.2131,4.187,22.63,1111122 
DISL,ioos:station:DISL:KATA:1,2016-02-04T05:30:00Z,30.2583,-88.2131,4.154,22.48,1111122 
DISL,ioos:station:DISL:KATA:1,2016-02-04T06:00:00Z,30.2583,-88.2131,4.11,22.46,1111122 
DISL,ioos:station:DISL:KATA:1,2016-02-04T06:30:00Z,30.2583,-88.2131,4.056,22.15,1111122 
DISL,ioos:station:DISL:KATA:1,2016-02-04T07:00:00Z,30.2583,-88.2131,4.011,21.84,1111122 
DISL,ioos:station:DISL:KATA:1,2016-02-04T07:30:00Z,30.2583,-88.2131,3.959,21.52,1111122 
DISL,ioos:station:DISL:KATA:1,2016-02-04T08:00:00Z,30.2583,-88.2131,3.918,21.19,1111122 
DISL,ioos:station:DISL:KATA:1,2016-02-04T08:30:00Z,30.2583,-88.2131,3.861,21.0,1111122 
DISL,ioos:station:DISL:KATA:1,2016-02-04T09:00:00Z,30.2583,-88.2131,3.806,20.38,1111122 
DISL,ioos:station:DISL:KATA:1,2016-02-04T09:30:00Z,30.2583,-88.2131,3.781,20.72,1111122 
DISL,ioos:station:DISL:KATA:1,2016-02-04T10:00:00Z,30.2583,-88.2131,3.76,20.78,1111122 
DISL,ioos:station:DISL:KATA:1,2016-02-04T10:30:00Z,30.2583,-88.2131,3.715,20.86,1111122 
DISL,ioos:station:DISL:KATA:1,2016-02-04T11:00:00Z,30.2583,-88.2131,3.701,20.79,1111122 
DISL,ioos:station:DISL:KATA:1,2016-02-04T11:30:00Z,30.2583,-88.2131,3.684,20.75,1111122 
DISL,ioos:station:DISL:KATA:1,2016-02-04T12:00:00Z,30.2583,-88.2131,3.713,21.37,1111122 
DISL,ioos:station:DISL:KATA:1,2016-02-04T12:30:00Z,30.2583,-88.2131,3.727,21.83,1111122 
DISL,ioos:station:DISL:KATA:1,2016-02-04T13:00:00Z,30.2583,-88.2131,3.775,21.75,1111122 
DISL,ioos:station:DISL:KATA:1,2016-02-04T13:30:00Z,30.2583,-88.2131,3.799,21.91,1111122 
DISL,ioos:station:DISL:KATA:1,2016-02-04T14:00:00Z,30.2583,-88.2131,3.812,21.95,1111122 
DISL,ioos:station:DISL:KATA:1,2016-02-04T14:30:00Z,30.2583,-88.2131,3.85,21.89,1111122 
DISL,ioos:station:DISL:KATA:1,2016-02-04T15:00:00Z,30.2583,-88.2131,3.885,21.94,1111122 
DISL,ioos:station:DISL:KATA:1,2016-02-04T15:30:00Z,30.2583,-88.2131,3.908,21.99,1111122 
DISL,ioos:station:DISL:KATA:1,2016-02-04T16:00:00Z,30.2583,-88.2131,3.941,21.96,1111122 
DISL,ioos:station:DISL:KATA:1,2016-02-04T16:30:00Z,30.2583,-88.2131,3.969,21.75,1111122 
DISL,ioos:station:DISL:KATA:1,2016-02-04T17:00:00Z,30.2583,-88.2131,3.993,21.73,1111122 
DISL,ioos:station:DISL:KATA:1,2016-02-04T17:30:00Z,30.2583,-88.2131,4.004,20.98,1111122 
DISL,ioos:station:DISL:KATA:1,2016-02-04T18:00:00Z,30.2583,-88.2131,4.053,21.62,1111122 
DISL,ioos:station:DISL:KATA:1,2016-02-04T18:30:00Z,30.2583,-88.2131,4.064,21.51,1111122 
DISL,ioos:station:DISL:KATA:1,2016-02-04T19:00:00Z,30.2583,-88.2131,4.094,20.98,1111122 
DISL,ioos:station:DISL:KATA:1,2016-02-04T19:30:00Z,30.2583,-88.2131,4.127,21.46,1111122 
DISL,ioos:station:DISL:KATA:1,2016-02-04T20:00:00Z,30.2583,-88.2131,4.138,21.44,1111122 
DISL,ioos:station:DISL:KATA:1,2016-02-04T20:30:00Z,30.2583,-88.2131,4.151,21.31,1111122 
DISL,ioos:station:DISL:KATA:1,2016-02-04T21:00:00Z,30.2583,-88.2131,4.174,21.44,1111122 
DISL,ioos:station:DISL:KATA:1,2016-02-04T21:30:00Z,30.2583,-88.2131,4.172,20.94,1111122 
DISL,ioos:station:DISL:KATA:1,2016-02-04T22:00:00Z,30.2583,-88.2131,4.173,20.89,1111122 
DISL,ioos:station:DISL:KATA:1,2016-02-04T22:30:00Z,30.2583,-88.2131,4.169,21.01,1111122 
DISL,ioos:station:DISL:KATA:1,2016-02-04T23:00:00Z,30.2583,-88.2131,4.24,20.6,1111122 
DISL,ioos:station:DISL:KATA:1,2016-02-04T23:30:00Z,30.2583,-88.2131,4.152,20.96,1111122 
DISL,ioos:station:DISL:KATA:1,2016-02-05T00:00:00Z,30.2583,-88.2131,4.133,20.76,1111122 
DISL,ioos:station:DISL:KATA:1,2016-02-05T00:30:00Z,30.2583,-88.2131,4.107,21.14,1111122 
DISL,ioos:station:DISL:KATA:1,2016-02-05T01:00:00Z,30.2583,-88.2131,4.035,20.76,1111122 
DISL,ioos:station:DISL:KATA:1,2016-02-05T01:30:00Z,30.2583,-88.2131,4.078,20.76,1111122 
DISL,ioos:station:DISL:KATA:1,2016-02-05T02:00:00Z,30.2583,-88.2131,4.061,20.62,1111122 
DISL,ioos:station:DISL:KATA:1,2016-02-05T02:30:00Z,30.2583,-88.2131,4.046,17.61,1111122 
DISL,ioos:station:DISL:KATA:1,2016-02-05T03:00:00Z,30.2583,-88.2131,4.041,18.29,1111122 
DISL,ioos:station:DISL:KATA:1,2016-02-05T03:30:00Z,30.2583,-88.2131,4.004,18.45,1111122 
DISL,ioos:station:DISL:KATA:1,2016-02-05T04:00:00Z,30.2583,-88.2131,3.964,16.67,1111122 
DISL,ioos:station:DISL:KATA:1,2016-02-05T04:30:00Z,30.2583,-88.2131,3.924,16.98,1111122 
DISL,ioos:station:DISL:KATA:1,2016-02-05T05:00:00Z,30.2583,-88.2131,3.894,13.66,1111122 
DISL,ioos:station:DISL:KATA:1,2016-02-05T05:30:00Z,30.2583,-88.2131,3.856,14.19,1111122 
DISL,ioos:station:DISL:KATA:1,2016-02-05T06:00:00Z,30.2583,-88.2131,3.82,14.34,1111122 
DISL,ioos:station:DISL:KATA:1,2016-02-05T06:30:00Z,30.2583,-88.2131,3.773,14.25,1111122 
DISL,ioos:station:DISL:KATA:1,2016-02-05T07:00:00Z,30.2583,-88.2131,3.728,14.45,1111122 
DISL,ioos:station:DISL:KATA:1,2016-02-05T07:30:00Z,30.2583,-88.2131,3.688,14.08,1111122 
DISL,ioos:station:DISL:KATA:1,2016-02-05T08:00:00Z,30.2583,-88.2131,3.658,14.35,1111122 
DISL,ioos:station:DISL:KATA:1,2016-02-05T08:30:00Z,30.2583,-88.2131,3.619,19.0,1111122 
DISL,ioos:station:DISL:KATA:1,2016-02-05T09:00:00Z,30.2583,-88.2131,3.587,19.21,1111122 
DISL,ioos:station:DISL:KATA:1,2016-02-05T09:30:00Z,30.2583,-88.2131,3.566,18.33,1111122 
DISL,ioos:station:DISL:KATA:1,2016-02-05T10:00:00Z,30.2583,-88.2131,3.549,17.43,1111122 
DISL,ioos:station:DISL:KATA:1,2016-02-05T10:30:00Z,30.2583,-88.2131,3.549,16.49,1111122 
DISL,ioos:station:DISL:KATA:1,2016-02-05T11:00:00Z,30.2583,-88.2131,3.542,17.28,1111122 
DISL,ioos:station:DISL:KATA:1,2016-02-05T11:30:00Z,30.2583,-88.2131,3.565,17.11,1111122 
DISL,ioos:station:DISL:KATA:1,2016-02-05T12:00:00Z,30.2583,-88.2131,3.586,16.59,1111122 
DISL,ioos:station:DISL:KATA:1,2016-02-05T12:30:00Z,30.2583,-88.2131,3.607,17.46,1111122 
DISL,ioos:station:DISL:KATA:1,2016-02-05T13:00:00Z,30.2583,-88.2131,3.628,17.84,1111122 
DISL,ioos:station:DISL:KATA:1,2016-02-05T13:30:00Z,30.2583,-88.2131,3.656,18.08,1111122 
DISL,ioos:station:DISL:KATA:1,2016-02-05T14:00:00Z,30.2583,-88.2131,3.677,18.47,1111122 
DISL,ioos:station:DISL:KATA:1,2016-02-05T14:30:00Z,30.2583,-88.2131,3.706,18.79,1111122 
DISL,ioos:station:DISL:KATA:1,2016-02-05T15:00:00Z,30.2583,-88.2131,3.726,18.78,1111122 
DISL,ioos:station:DISL:KATA:1,2016-02-05T15:30:00Z,30.2583,-88.2131,3.743,18.5,1111122 
DISL,ioos:station:DISL:KATA:1,2016-02-05T16:00:00Z,30.2583,-88.2131,3.768,18.09,1111122 
DISL,ioos:station:DISL:KATA:1,2016-02-05T16:30:00Z,30.2583,-88.2131,3.788,17.86,1111122 
DISL,ioos:station:DISL:KATA:1,2016-02-05T17:00:00Z,30.2583,-88.2131,3.8,17.61,1111122 
DISL,ioos:station:DISL:KATA:1,2016-02-05T17:30:00Z,30.2583,-88.2131,3.812,17.67,1111122 
DISL,ioos:station:DISL:KATA:1,2016-02-05T18:00:00Z,30.2583,-88.2131,3.825,17.62,1111122 
DISL,ioos:station:DISL:KATA:1,2016-02-05T18:30:00Z,30.2583,-88.2131,3.863,17.02,1111122 
DISL,ioos:station:DISL:KATA:1,2016-02-05T19:00:00Z,30.2583,-88.2131,3.886,16.68,1111122 
DISL,ioos:station:DISL:KATA:1,2016-02-05T19:30:00Z,30.2583,-88.2131,3.914,16.73,1111122 
DISL,ioos:station:DISL:KATA:1,2016-02-05T20:00:00Z,30.2583,-88.2131,3.955,15.5,1111122 
DISL,ioos:station:DISL:KATA:1,2016-02-05T20:30:00Z,30.2583,-88.2131,3.987,15.14,1111122 
DISL,ioos:station:DISL:KATA:1,2016-02-05T21:00:00Z,30.2583,-88.2131,4.006,15.32,1111122 
DISL,ioos:station:DISL:KATA:1,2016-02-05T21:30:00Z,30.2583,-88.2131,4.032,14.1,1111122 
DISL,ioos:station:DISL:KATA:1,2016-02-05T22:00:00Z,30.2583,-88.2131,4.058,12.87,1111122 
DISL,ioos:station:DISL:KATA:1,2016-02-05T22:30:00Z,30.2583,-88.2131,4.078,12.33,1111122 
DISL,ioos:station:DISL:KATA:1,2016-02-05T23:00:00Z,30.2583,-88.2131,4.107,12.09,1111122 
DISL,ioos:station:DISL:KATA:1,2016-02-05T23:30:00Z,30.2583,-88.2131,4.119,12.52,1111122 
DISL,ioos:station:DISL:KATA:1,2016-02-06T00:00:00Z,30.2583,-88.2131,4.122,12.45,1111122 
DISL,ioos:station:DISL:KATA:1,2016-02-06T00:30:00Z,30.2583,-88.2131,4.116,12.26,1111122 
DISL,ioos:station:DISL:KATA:1,2016-02-06T01:00:00Z,30.2583,-88.2131,4.092,13.5,1111122 
DISL,ioos:station:DISL:KATA:1,2016-02-06T01:30:00Z,30.2583,-88.2131,4.07,14.77,1111122 
DISL,ioos:station:DISL:KATA:1,2016-02-06T02:00:00Z,30.2583,-88.2131,4.045,15.29,1111122 
DISL,ioos:station:DISL:KATA:1,2016-02-06T02:30:00Z,30.2583,-88.2131,4.035,15.79,1111122 
DISL,ioos:station:DISL:KATA:1,2016-02-06T03:00:00Z,30.2583,-88.2131,4.031,16.22,1111122 
DISL,ioos:station:DISL:KATA:1,2016-02-06T03:30:00Z,30.2583,-88.2131,4.018,16.5,1111122 
DISL,ioos:station:DISL:KATA:1,2016-02-06T04:00:00Z,30.2583,-88.2131,3.996,16.68,1111122 
DISL,ioos:station:DISL:KATA:1,2016-02-06T04:30:00Z,30.2583,-88.2131,3.973,16.82,1111122 
DISL,ioos:station:DISL:KATA:1,2016-02-06T05:00:00Z,30.2583,-88.2131,3.929,16.79,1111122 
DISL,ioos:station:DISL:KATA:1,2016-02-06T05:30:00Z,30.2583,-88.2131,3.884,16.82,1111122 
DISL,ioos:station:DISL:KATA:1,2016-02-06T06:00:00Z,30.2583,-88.2131,3.843,16.8,1111122 
DISL,ioos:station:DISL:KATA:1,2016-02-06T06:30:00Z,30.2583,-88.2131,3.781,17.02,1111122 
DISL,ioos:station:DISL:KATA:1,2016-02-06T07:00:00Z,30.2583,-88.2131,3.723,17.15,1111122 
DISL,ioos:station:DISL:KATA:1,2016-02-06T07:30:00Z,30.2583,-88.2131,3.669,17.16,1111122 
DISL,ioos:station:DISL:KATA:1,2016-02-06T08:00:00Z,30.2583,-88.2131,3.612,17.2,1111122 
DISL,ioos:station:DISL:KATA:1,2016-02-06T08:30:00Z,30.2583,-88.2131,3.573,17.08,1111122 
DISL,ioos:station:DISL:KATA:1,2016-02-06T09:00:00Z,30.2583,-88.2131,3.546,17.07,1111122 
DISL,ioos:station:DISL:KATA:1,2016-02-06T09:30:00Z,30.2583,-88.2131,3.527,16.89,1111122 
DISL,ioos:station:DISL:KATA:1,2016-02-06T10:00:00Z,30.2583,-88.2131,3.529,17.02,1111122 
DISL,ioos:station:DISL:KATA:1,2016-02-06T10:30:00Z,30.2583,-88.2131,3.531,17.76,1111122 
DISL,ioos:station:DISL:KATA:1,2016-02-06T11:00:00Z,30.2583,-88.2131,3.546,18.31,1111122 
DISL,ioos:station:DISL:KATA:1,2016-02-06T11:30:00Z,30.2583,-88.2131,3.571,18.51,1111122 
DISL,ioos:station:DISL:KATA:1,2016-02-06T12:00:00Z,30.2583,-88.2131,3.595,18.66,1111122 
DISL,ioos:station:DISL:KATA:1,2016-02-06T12:30:00Z,30.2583,-88.2131,3.615,18.91,1111122 
DISL,ioos:station:DISL:KATA:1,2016-02-06T13:00:00Z,30.2583,-88.2131,3.633,19.09,1111122 
DISL,ioos:station:DISL:KATA:1,2016-02-06T13:30:00Z,30.2583,-88.2131,3.642,19.17,1111122 
DISL,ioos:station:DISL:KATA:1,2016-02-06T14:00:00Z,30.2583,-88.2131,3.644,19.15,1111122 